FW7769 Weather Reports


time (UTC)temp
F
wind
direction
speed
knots
gust
knots
rain 1hr
in
rain 24hr
in
rain mn
in
humidity
%
barometer
mb
20260504081541 65 0 0.0 0.0 0.00 0.00 0.00 90 1010.8
20260504044546 62 0 0.0 0.0 0.00 0.00 0.00 94 1010.3
20260504043057 62 0 0.0 0.0 0.00 0.00 0.00 94 1010.4
20260504041540 62 0 0.0 0.0 0.00 0.00 0.00 94 1010.3
20260504040058 62 0 0.0 0.0 0.00 0.00 0.00 94 1010.2
20260504034553 62 0 0.0 0.0 0.00 0.00 0.00 94 1010.4
20260504033043 62 0 0.0 0.0 0.00 0.00 0.00 94 1010.5
20260504031544 62 0 0.0 0.0 0.00 0.00 0.00 94 1010.7
20260504030058 62 0 0.0 0.0 0.00 0.00 0.00 93 1010.8
20260504024549 62 0 0.0 0.0 0.00 0.00 0.00 94 1010.8
20260504023039 62 0 0.0 0.0 0.00 0.00 0.00 94 1010.9
20260504021538 62 0 0.0 0.0 0.00 0.00 0.00 94 1010.9
20260504020043 63 0 0.0 0.0 0.00 0.00 0.00 94 1011.0
20260504014543 63 0 0.0 0.0 0.00 0.00 0.00 95 1011.0
20260504013049 63 0 0.0 0.0 0.00 0.00 0.00 95 1011.1
20260504011541 64 0 0.0 0.0 0.00 0.00 0.00 95 1011.2
20260504010040 64 0 0.0 0.0 0.00 0.00 0.00 95 1011.2
20260504004546 64 0 0.0 0.0 0.00 0.00 0.00 94 1011.1
20260504003036 64 0 0.0 0.0 0.00 0.00 0.00 93 1011.2
20260504001559 64 0 0.0 0.0 0.00 0.00 0.00 92 1011.3
20260504000042 64 0 0.0 0.0 0.00 0.00 0.00 91 1011.3
20260503234540 64 0 0.0 0.0 0.00 0.00 0.00 91 1011.4
20260503233040 64 0 0.0 0.0 0.00 0.00 0.00 90 1011.5
20260503231548 64 0 0.0 0.0 0.00 0.00 0.00 90 1011.5
20260503230043 64 0 0.0 0.0 0.00 0.00 0.00 91 1011.7
20260503224543 64 0 0.0 0.0 0.00 0.00 0.00 90 1011.6
20260503223041 64 0 0.0 0.0 0.00 0.00 0.00 90 1011.8
20260503221547 64 0 0.0 0.0 0.00 0.00 0.00 91 1011.9
20260503220040 65 0 0.0 0.0 0.00 0.00 0.00 91 1011.9
20260503214547 65 0 0.0 0.9 0.00 0.00 0.00 90 1012.0
20260503213045 65 0 0.0 0.0 0.00 0.00 0.00 88 1012.1
20260503211548 66 0 0.0 0.0 0.00 0.00 0.00 88 1012.1
20260503210039 66 0 0.0 0.0 0.00 0.00 0.00 86 1012.1
20260503204546 66 0 0.0 0.0 0.00 0.00 0.00 86 1012.0
20260503203049 66 0 0.0 0.0 0.00 0.00 0.00 86 1011.8
20260503201539 66 0 0.0 0.0 0.00 0.00 0.00 85 1011.7
20260503200042 66 0 0.0 0.0 0.00 0.00 0.00 85 1011.5
20260503194545 66 0 0.0 0.0 0.00 0.00 0.00 84 1011.2
20260503193049 65 0 0.0 0.9 0.00 0.00 0.00 84 1010.8
20260503191538 65 0 0.0 0.9 0.00 0.00 0.00 84 1010.5
20260503190049 66 0 0.0 0.9 0.00 0.00 0.00 84 1010.5
20260503184536 66 0 0.0 1.7 0.00 0.00 0.00 83 1010.3
20260503183055 66 0 0.0 3.5 0.00 0.00 0.00 82 1010.1
20260503181541 67 0 0.0 4.3 0.00 0.00 0.00 80 1009.9
20260503180051 67 0 0.0 2.6 0.00 0.00 0.00 78 1009.9
20260503174539 68 120 0.0 3.5 0.00 0.00 0.00 78 1009.9
20260503173056 69 0 0.0 5.2 0.00 0.00 0.00 76 1009.7
20260503171542 70 57 0.0 3.5 0.00 0.00 0.00 75 1009.4